Tracking 31027 objects as of 19-Jul-2025
HD Live streaming from Space Station
objects crossing your sky now

METEOR 2-17 DEB

Track METEOR 2-17 DEB now!
10-day predictions


NORAD ID: 28992
Int'l Code: 1988-005G
Perigee: 900.8 km
Apogee: 908.3 km
Inclination: 82.5 °
Period: 102.9 minutes
Semi major axis: 7275 km
RCS: 0.0128 m2 (small)
Launch date: January 30, 1988
Source: Commonwealth of Independent States (former USSR) (CIS)
Launch site: PLESETSK MISSILE AND SPACE COMPLEX (PKMTR)

Note: This is SATELLITE DEBRIS
Your satellite tracking list
Your tracking list is empty




NASA's NSSDC Master Catalog

Two Line Element Set (TLE):
1 28992U 88005G   25197.72853763  .00000564  00000-0  38040-3 0  9999
2 28992  82.5379 193.9468 0005158 152.3032  26.4975 13.98963672613615
Source of the keplerian elements: AFSPC